Hourly Data Report for May 04, 2019

MIRAMICHI RCS
NEW BRUNSWICK
Current Station Operator: ECCC - MSC

47°00'34.000" N
65°27'54.000" W
33.00 m
8100989
71744
ACQ

Download Data

Hourly Data (May 2019)
Hourly Data Report for May 4, 2019
TIME
LST
Temp Definition
°C
Dew Point Definition
°C
Rel Hum Definition
%
Precip. Amount Definition
mm

Wind Dir Definition
10's deg

Wind Spd Definition
km/h
Visibility Definition
km
Stn Press Definition
kPa
Hmdx Definition


Wind Chill Definition


Weather Definition


00:00 7.6 5.5 87 0.0 22 13   101.15     LegendNANA
01:00 6.8 5.7 93 0.8 21 10   101.11     LegendNANA
02:00 6.5 5.5 93 0.5 21 12   101.04     LegendNANA
03:00 6.2 5.2 94 0.2 21 11   101.00     LegendNANA
04:00 5.9 5.0 94 0.0 21 10   100.94     LegendNANA
05:00 5.5 4.6 94 0.0 21 10   100.90     LegendNANA
06:00 5.3 4.5 95 0.0 21 10   100.88     LegendNANA
07:00 5.5 4.7 95 0.3 22 9   100.86     LegendNANA
08:00 6.1 5.2 94 0.0 24 12   100.86     LegendNANA
09:00 6.8 5.7 93 0.0 24 11   100.84     LegendNANA
10:00 8.0 6.9 93 0.0 25 10   100.82     LegendNANA
11:00 9.2 6.5 84 0.0 26 10   100.78     LegendNANA
12:00 10.6 6.8 78 0.0 27 9   100.73     LegendNANA
13:00 12.7 7.1 69 0.0 26 11   100.67     LegendNANA
14:00 13.3 6.9 65 0.0 24 11   100.60     LegendNANA
15:00 14.3 6.6 60 0.0 26 9   100.55     LegendNANA
16:00 14.5 6.6 59 0.0 14 2   100.49     LegendNANA
17:00 15.3 4.8 50 0.0 33 6   100.49     LegendNANA
18:00 16.4 3.0 41 0.0 31 8   100.47     LegendNANA
19:00 15.8 3.0 42 0.0 32 4   100.49     LegendNANA
20:00 11.0 5.0 67 0.0   0   100.51     LegendNANA
21:00 8.6 4.7 77 0.0 0 1   100.58     LegendNANA
22:00 6.1 3.5 83 0.0 31 3   100.58     LegendNANA
23:00 6.2 3.6 83 0.0 36 4   100.63     LegendNANA

Notes on Data Quality.

Legend

  • E = Estimated
  • M = Missing
  • NA = Not Available*
  • [empty] = Indicates an unobserved value
Date modified: